{"data":{"norad_id":48019,"epoch":"2026-05-24T21:05:15.798048Z","epoch_age_seconds":95591,"freshness":"FRESH","line1":"1 48019U 21024AU  26144.87865507  .00003895  00000+0  13713-3 0  9996","line2":"2 48019  53.1600 312.5140 0000971  82.0230 278.0881 15.31718207286596","mean_motion":15.31718207,"eccentricity":9.71e-5,"inclination_deg":53.16,"raan_deg":312.514,"arg_perigee_deg":82.023,"mean_anomaly_deg":278.0881,"bstar":0.00013713,"rev_number":28659,"period_min":94.012070459119,"perigee_km":470.02070095741,"apogee_km":471.35074232995,"semimajor_km":6848.8227216437,"source":"CELESTRAK","updated_at":"2026-05-25T13:38:16.639918Z"}}